datetime,Temperature,Globe Temperature,Relative Humidity,Tmrt
2019-10-22 17:10:04,28.3,30.8,82.9,34.126329835900094
2019-10-22 17:10:06,28.3,30.8,83.0,30.80000000000001
2019-10-22 17:10:08,28.3,30.8,83.0,30.80000000000001
2019-10-22 17:10:10,28.3,30.8,83.0,30.80000000000001
2019-10-22 17:10:12,28.2,30.8,83.0,34.25715451371343
2019-10-22 17:10:14,28.2,30.8,83.0,30.80000000000001
2019-10-22 17:10:16,28.1,30.8,83.0,30.80000000000001
2019-10-22 17:10:18,28.0,30.8,82.9,35.728293736391265
2019-10-22 17:10:20,27.9,30.8,82.8,35.89999314559168
2019-10-22 17:10:22,27.8,30.8,82.7,36.0714068568592
2019-10-22 17:10:24,27.8,30.8,82.6,36.0714068568592
2019-10-22 17:10:26,27.7,30.8,82.5,30.80000000000001
2019-10-22 17:10:28,27.7,30.8,82.4,30.80000000000001
2019-10-22 17:10:30,27.7,30.8,82.3,30.80000000000001
2019-10-22 17:10:32,27.6,30.8,82.2,30.80000000000001
2019-10-22 17:10:34,27.6,29.8,82.1,29.80000000000001
2019-10-22 17:10:36,27.6,29.9,82.1,29.899999999999977
2019-10-22 17:10:38,27.7,30.0,82.0,30.0
2019-10-22 17:10:40,27.6,30.0,82.0,35.311827168206094
2019-10-22 17:10:42,27.5,30.0,82.0,37.65735786688373
2019-10-22 17:10:44,27.4,30.0,81.9,40.11581031339426
2019-10-22 17:10:46,27.4,30.0,81.9,41.18106352921308
2019-10-22 17:10:48,27.3,30.1,81.9,38.63108731446346
2019-10-22 17:10:50,27.3,30.1,81.8,30.100000000000023
2019-10-22 17:10:52,27.3,30.1,81.8,30.100000000000023
2019-10-22 17:10:54,27.3,30.1,81.7,30.100000000000023
2019-10-22 17:10:56,27.3,30.1,81.6,30.100000000000023
2019-10-22 17:10:58,27.4,30.1,81.6,30.100000000000023
2019-10-22 17:11:00,27.4,30.1,81.5,30.100000000000023
2019-10-22 17:11:02,27.4,30.1,81.5,34.88830622685526
2019-10-22 17:11:04,27.4,30.1,81.5,30.100000000000023
2019-10-22 17:11:06,27.4,30.1,81.4,30.100000000000023
2019-10-22 17:11:08,27.4,30.1,81.4,30.100000000000023
2019-10-22 17:11:10,27.4,30.1,81.4,30.100000000000023
2019-10-22 17:11:12,27.5,30.1,81.4,30.100000000000023
2019-10-22 17:11:14,27.6,30.1,81.4,30.100000000000023
2019-10-22 17:11:16,27.6,30.1,81.3,30.100000000000023
2019-10-22 17:11:18,27.7,30.1,81.3,30.100000000000023
2019-10-22 17:11:20,27.7,30.1,81.2,30.100000000000023
2019-10-22 17:11:22,27.8,30.1,81.2,30.100000000000023
2019-10-22 17:11:24,27.8,30.1,81.2,35.19105106727807
2019-10-22 17:11:26,27.8,30.1,81.2,36.179556338513805
2019-10-22 17:11:28,27.8,30.1,81.2,36.179556338513805
2019-10-22 17:11:30,27.7,30.1,81.2,30.100000000000023
2019-10-22 17:11:32,27.8,30.1,81.2,30.100000000000023
2019-10-22 17:11:34,27.8,30.0,81.2,30.0
2019-10-22 17:11:36,27.8,30.0,81.2,30.0
2019-10-22 17:11:38,27.8,30.0,81.2,33.9221473513677
2019-10-22 17:11:40,27.8,30.0,81.2,34.879570406213475
2019-10-22 17:11:42,27.8,30.0,81.1,35.82814816060187
2019-10-22 17:11:44,27.8,30.0,81.1,35.82814816060187
2019-10-22 17:11:46,27.8,30.0,81.1,33.9221473513677
2019-10-22 17:11:48,27.8,30.0,81.0,33.9221473513677
2019-10-22 17:11:50,27.9,30.0,81.0,32.823182200683675
2019-10-22 17:11:52,27.9,30.0,81.0,30.0
2019-10-22 17:11:54,27.9,30.0,81.0,30.0
2019-10-22 17:11:56,27.9,30.0,81.0,30.0
2019-10-22 17:11:58,28.0,30.0,80.9,30.0
2019-10-22 17:12:00,28.0,30.0,80.9,30.0
2019-10-22 17:12:02,28.0,30.0,80.8,30.0
2019-10-22 17:12:04,28.0,30.0,80.8,30.0
2019-10-22 17:12:06,28.0,30.0,80.7,30.0
2019-10-22 17:12:08,28.0,30.0,80.7,30.0
2019-10-22 17:12:10,28.0,30.0,80.6,30.0
2019-10-22 17:12:12,28.0,30.0,80.6,30.0
2019-10-22 17:12:14,28.0,30.0,80.5,30.0
2019-10-22 17:12:16,28.0,30.0,80.4,30.0
2019-10-22 17:12:18,28.0,30.0,80.4,30.0
2019-10-22 17:12:20,28.0,30.0,80.4,30.0
2019-10-22 17:12:22,28.0,30.0,80.3,30.0
2019-10-22 17:12:24,28.0,29.9,80.4,29.899999999999977
2019-10-22 17:12:26,27.8,29.9,80.4,29.899999999999977
2019-10-22 17:12:28,27.8,29.9,80.4,29.899999999999977
2019-10-22 17:12:30,27.7,29.9,80.4,29.899999999999977
2019-10-22 17:12:32,27.6,29.9,80.4,29.899999999999977
2019-10-22 17:12:34,27.5,29.9,80.4,29.899999999999977
2019-10-22 17:12:36,27.5,29.8,80.4,29.80000000000001
2019-10-22 17:12:38,27.4,29.8,80.4,29.80000000000001
2019-10-22 17:12:40,27.4,29.8,80.4,29.80000000000001
2019-10-22 17:12:42,27.3,29.8,80.4,29.80000000000001
2019-10-22 17:12:44,27.3,29.8,80.4,29.80000000000001
2019-10-22 17:12:46,27.3,29.8,80.4,29.80000000000001
2019-10-22 17:12:48,27.3,29.8,80.5,29.80000000000001
2019-10-22 17:12:50,27.3,29.8,80.5,29.80000000000001
2019-10-22 17:12:52,27.3,29.8,80.5,29.80000000000001
2019-10-22 17:12:54,27.2,29.8,80.5,29.80000000000001
2019-10-22 17:12:56,27.2,30.0,80.5,30.0
2019-10-22 17:12:58,27.2,30.0,80.6,30.0
2019-10-22 17:13:00,27.1,30.0,80.6,35.13914260905557
2019-10-22 17:13:02,27.1,30.0,80.6,36.38459044783974
2019-10-22 17:13:04,27.1,30.0,80.7,36.38459044783974
2019-10-22 17:13:06,27.0,29.9,80.7,35.044063731462245
2019-10-22 17:13:08,27.0,29.9,80.8,29.899999999999977
2019-10-22 17:13:10,27.0,29.9,80.8,29.899999999999977
2019-10-22 17:13:12,27.0,29.9,80.9,29.899999999999977
2019-10-22 17:13:14,27.0,29.9,80.9,29.899999999999977
2019-10-22 17:13:16,27.0,29.9,81.0,29.899999999999977
2019-10-22 17:13:18,27.1,29.9,81.1,29.899999999999977
2019-10-22 17:13:20,27.1,29.9,81.1,29.899999999999977
2019-10-22 17:13:22,27.1,29.9,81.2,29.899999999999977
2019-10-22 17:13:24,27.2,29.9,81.3,29.899999999999977
2019-10-22 17:13:26,27.2,29.9,81.4,29.899999999999977
2019-10-22 17:13:28,27.1,29.9,81.4,29.899999999999977
2019-10-22 17:13:30,27.1,29.9,81.5,36.07679944774122
2019-10-22 17:13:32,27.0,29.9,81.6,37.522360650348844
2019-10-22 17:13:34,27.0,29.9,81.7,38.73958797047993
2019-10-22 17:13:36,27.1,29.9,81.8,37.268726131277276
2019-10-22 17:13:38,27.0,29.9,81.8,36.29065533637322
2019-10-22 17:13:40,27.0,29.9,81.9,37.522360650348844
2019-10-22 17:13:42,27.0,29.9,82.0,38.73958797047993
2019-10-22 17:13:44,27.0,29.9,82.0,38.73958797047993
2019-10-22 17:13:46,27.0,29.9,82.0,38.73958797047993
2019-10-22 17:13:48,27.1,29.9,82.1,40.76446886550309
2019-10-22 17:13:50,27.0,29.9,82.1,42.30823089169354
2019-10-22 17:13:52,27.0,29.9,82.2,41.1321561711822
2019-10-22 17:13:54,27.0,30.0,82.2,41.58790770002071
2019-10-22 17:13:56,27.0,30.0,82.3,42.79906664369133
2019-10-22 17:13:58,27.0,30.0,82.3,41.58790770002071
2019-10-22 17:14:00,27.0,30.0,82.3,40.36260293041073
2019-10-22 17:14:02,26.9,30.0,82.4,39.413378777506864
2019-10-22 17:14:04,27.0,30.0,82.4,36.59780989431778
2019-10-22 17:14:06,27.0,30.0,82.4,34.00955639573476
2019-10-22 17:14:08,27.0,30.0,82.4,36.59780989431778
2019-10-22 17:14:10,27.0,30.0,82.4,37.86797213998767
2019-10-22 17:14:12,27.0,30.0,82.4,30.0
2019-10-22 17:14:14,27.0,30.0,82.4,35.311827168206094
2019-10-22 17:14:16,27.0,30.0,82.5,35.311827168206094
2019-10-22 17:14:18,27.0,30.0,82.5,30.0
2019-10-22 17:14:20,27.2,30.0,82.5,30.0
2019-10-22 17:14:22,27.2,30.0,82.5,30.0
2019-10-22 17:14:24,27.2,30.0,82.6,36.17092946706896
2019-10-22 17:14:26,27.2,30.0,82.7,37.36177665327568
2019-10-22 17:14:28,27.2,30.0,82.8,38.539078263503654
2019-10-22 17:14:30,27.2,30.0,82.9,37.36177665327568
2019-10-22 17:14:32,27.2,30.0,82.9,36.17092946706896
2019-10-22 17:14:34,27.2,30.0,83.0,34.96616737959505
2019-10-22 17:14:36,27.3,30.0,83.0,30.0
2019-10-22 17:14:38,27.3,30.0,83.1,30.0
2019-10-22 17:14:40,27.3,30.0,83.1,30.0
2019-10-22 17:14:42,27.4,30.0,83.1,30.0
2019-10-22 17:14:44,27.4,30.0,83.2,30.0
2019-10-22 17:14:46,27.5,30.0,83.2,30.0
2019-10-22 17:14:48,27.5,30.0,83.2,30.0
2019-10-22 17:14:50,27.4,30.0,83.1,30.0
2019-10-22 17:14:52,27.5,30.0,83.1,30.0
2019-10-22 17:14:54,27.5,30.0,83.1,30.0
2019-10-22 17:14:56,27.6,30.0,83.1,30.0
2019-10-22 17:14:58,27.6,30.0,83.1,30.0
2019-10-22 17:15:00,27.7,30.0,83.1,30.0
2019-10-22 17:15:02,27.7,30.0,83.1,30.0
2019-10-22 17:15:04,27.8,30.0,83.0,30.0
2019-10-22 17:15:06,27.8,30.0,83.0,30.0
2019-10-22 17:15:08,27.8,30.0,83.0,30.0
2019-10-22 17:15:10,27.8,29.8,83.0,29.80000000000001
2019-10-22 17:15:12,27.8,29.8,82.9,29.80000000000001
2019-10-22 17:15:14,27.8,29.8,82.8,29.80000000000001
2019-10-22 17:15:16,27.8,29.8,82.8,29.80000000000001
2019-10-22 17:15:18,27.8,29.8,82.6,29.80000000000001
2019-10-22 17:15:20,27.9,29.8,82.5,29.80000000000001
2019-10-22 17:15:22,27.9,29.8,82.4,29.80000000000001
2019-10-22 17:15:24,27.9,29.8,82.3,29.80000000000001
2019-10-22 17:15:26,27.9,29.8,82.2,29.80000000000001
2019-10-22 17:15:28,27.9,29.8,82.0,29.80000000000001
2019-10-22 17:15:30,28.0,29.8,81.9,29.80000000000001
2019-10-22 17:15:32,28.0,29.8,81.8,29.80000000000001
2019-10-22 17:15:34,28.0,29.8,81.7,29.80000000000001
2019-10-22 17:15:36,28.0,29.8,81.6,29.80000000000001
2019-10-22 17:15:38,28.0,29.8,81.5,29.80000000000001
2019-10-22 17:15:40,28.0,29.8,81.4,29.80000000000001
2019-10-22 17:15:42,28.0,29.8,81.3,29.80000000000001
2019-10-22 17:15:44,28.1,29.8,81.2,29.80000000000001
2019-10-22 17:15:46,28.1,29.8,81.1,29.80000000000001
2019-10-22 17:15:48,28.1,29.8,81.0,29.80000000000001
2019-10-22 17:15:50,28.1,29.8,80.9,29.80000000000001
2019-10-22 17:15:52,28.1,29.8,80.8,29.80000000000001
2019-10-22 17:15:54,28.1,29.9,80.8,29.899999999999977
2019-10-22 17:15:56,28.2,29.9,80.7,29.899999999999977
2019-10-22 17:15:58,28.2,29.9,80.6,29.899999999999977
2019-10-22 17:16:00,28.2,29.9,80.5,29.899999999999977
2019-10-22 17:16:02,28.2,29.9,80.4,29.899999999999977
2019-10-22 17:16:04,28.2,29.9,80.4,29.899999999999977
2019-10-22 17:16:06,28.2,29.9,80.4,29.899999999999977
2019-10-22 17:16:08,28.1,29.9,80.3,29.899999999999977
2019-10-22 17:16:10,28.1,29.9,80.3,29.899999999999977
2019-10-22 17:16:12,28.1,29.9,80.3,29.899999999999977
2019-10-22 17:16:14,28.1,29.9,80.2,29.899999999999977
2019-10-22 17:16:16,28.1,29.9,80.2,29.899999999999977
2019-10-22 17:16:18,28.1,29.9,80.2,29.899999999999977
2019-10-22 17:16:20,28.1,29.9,80.2,29.899999999999977
2019-10-22 17:16:22,28.1,29.8,80.1,29.80000000000001
2019-10-22 17:16:24,28.1,29.8,80.1,29.80000000000001
2019-10-22 17:16:26,28.1,29.8,80.0,29.80000000000001
2019-10-22 17:16:28,28.1,29.8,80.0,29.80000000000001
2019-10-22 17:16:30,28.1,29.8,80.0,29.80000000000001
2019-10-22 17:16:32,28.1,29.8,79.9,29.80000000000001
2019-10-22 17:16:34,28.1,29.8,79.8,29.80000000000001
2019-10-22 17:16:36,28.1,29.8,79.8,29.80000000000001
2019-10-22 17:16:38,28.1,29.8,79.7,29.80000000000001
2019-10-22 17:16:40,28.1,29.8,79.7,29.80000000000001
2019-10-22 17:16:42,28.1,29.8,79.6,29.80000000000001
2019-10-22 17:16:44,28.1,29.8,79.5,29.80000000000001
2019-10-22 17:16:46,28.1,29.8,79.5,29.80000000000001
2019-10-22 17:16:48,28.1,29.9,79.4,29.899999999999977
2019-10-22 17:16:50,28.1,29.9,79.4,29.899999999999977
2019-10-22 17:16:52,28.2,29.9,79.3,29.899999999999977
2019-10-22 17:16:54,28.2,29.8,79.3,29.80000000000001
2019-10-22 17:16:56,28.2,29.8,79.2,29.80000000000001
2019-10-22 17:16:58,28.2,29.8,79.2,29.80000000000001
2019-10-22 17:17:00,28.3,29.8,79.2,29.80000000000001
2019-10-22 17:17:02,28.3,29.8,79.1,29.80000000000001
2019-10-22 17:17:04,28.3,29.8,79.1,29.80000000000001
2019-10-22 17:17:06,28.4,29.8,79.1,29.80000000000001
2019-10-22 17:17:08,28.4,29.8,79.0,29.80000000000001
2019-10-22 17:17:10,28.4,29.8,79.0,29.80000000000001
2019-10-22 17:17:12,28.4,29.8,78.9,29.80000000000001
2019-10-22 17:17:14,28.4,29.8,78.9,29.80000000000001
2019-10-22 17:17:16,28.4,29.8,78.8,29.80000000000001
2019-10-22 17:17:18,28.5,29.8,78.8,29.80000000000001
2019-10-22 17:17:20,28.5,29.8,78.8,29.80000000000001
2019-10-22 17:17:22,28.4,29.8,78.8,29.80000000000001
2019-10-22 17:17:24,28.4,29.8,78.7,29.80000000000001
2019-10-22 17:17:26,28.4,29.8,78.7,29.80000000000001
2019-10-22 17:17:28,28.4,29.7,78.7,29.69999999999999
2019-10-22 17:17:30,28.4,29.7,78.7,29.69999999999999
2019-10-22 17:17:32,28.4,29.8,78.7,29.80000000000001
2019-10-22 17:17:34,28.4,29.8,78.8,29.80000000000001
2019-10-22 17:17:36,28.4,29.8,78.8,29.80000000000001
2019-10-22 17:17:38,28.4,29.8,78.8,29.80000000000001
2019-10-22 17:17:40,28.4,29.8,78.8,29.80000000000001
2019-10-22 17:17:42,28.4,29.8,78.8,29.80000000000001
2019-10-22 17:17:44,28.4,29.8,78.8,29.80000000000001
2019-10-22 17:17:46,28.4,29.8,78.8,29.80000000000001
2019-10-22 17:17:48,28.4,29.8,78.8,29.80000000000001
2019-10-22 17:17:50,28.3,29.8,78.9,29.80000000000001
2019-10-22 17:17:52,28.2,29.8,78.9,29.80000000000001
2019-10-22 17:17:54,28.1,29.8,78.9,29.80000000000001
2019-10-22 17:17:56,28.0,29.8,79.0,29.80000000000001
2019-10-22 17:17:58,28.0,30.0,79.1,30.0
2019-10-22 17:18:00,27.9,30.0,79.1,30.0
2019-10-22 17:18:02,27.8,30.0,79.2,30.0
2019-10-22 17:18:04,27.8,30.0,79.3,30.0
2019-10-22 17:18:06,27.7,30.1,79.4,30.100000000000023
2019-10-22 17:18:08,27.7,30.1,79.5,30.100000000000023
2019-10-22 17:18:10,27.8,30.1,79.6,30.100000000000023
2019-10-22 17:18:12,27.8,30.1,79.7,30.100000000000023
2019-10-22 17:18:14,27.8,30.1,79.8,30.100000000000023
2019-10-22 17:18:16,27.8,30.2,79.9,30.19999999999999
2019-10-22 17:18:18,27.8,30.2,80.0,30.19999999999999
2019-10-22 17:18:20,27.8,30.2,80.1,30.19999999999999
2019-10-22 17:18:22,27.8,30.2,80.2,30.19999999999999
2019-10-22 17:18:24,27.8,30.2,80.2,30.19999999999999
2019-10-22 17:18:26,27.8,30.2,80.3,30.19999999999999
2019-10-22 17:18:28,27.8,30.2,80.3,30.19999999999999
2019-10-22 17:18:30,27.7,30.2,80.4,30.19999999999999
2019-10-22 17:18:32,27.7,30.2,80.4,30.19999999999999
2019-10-22 17:18:34,27.7,30.2,80.4,30.19999999999999
2019-10-22 17:18:36,27.6,30.2,80.4,30.19999999999999
2019-10-22 17:18:38,27.6,30.2,80.5,30.19999999999999
2019-10-22 17:18:40,27.6,30.3,80.5,30.30000000000001
2019-10-22 17:18:42,27.6,30.3,80.6,30.30000000000001
2019-10-22 17:18:44,27.6,30.4,80.6,30.399999999999977
2019-10-22 17:18:46,27.5,30.4,80.7,35.51951921777885
2019-10-22 17:18:48,27.5,30.4,80.8,36.760405143924004
2019-10-22 17:18:50,27.5,30.4,80.8,40.39627810401146
2019-10-22 17:18:52,27.4,30.4,80.9,41.94543160736578
2019-10-22 17:18:54,27.4,30.4,80.9,43.15250386066202
2019-10-22 17:18:56,27.4,30.4,80.9,41.94543160736578
2019-10-22 17:18:58,27.3,30.5,81.0,42.76013184031126
2019-10-22 17:19:00,27.3,30.5,81.0,42.76013184031126
2019-10-22 17:19:02,27.3,30.5,81.0,42.76013184031126
2019-10-22 17:19:04,27.2,30.5,81.0,43.12091066141954
2019-10-22 17:19:06,27.2,30.5,81.0,41.79196402767417
2019-10-22 17:19:08,27.2,30.5,81.0,40.4459780903411
2019-10-22 17:19:10,27.2,30.5,81.0,40.4459780903411
2019-10-22 17:19:12,27.2,30.5,81.0,40.4459780903411
2019-10-22 17:19:14,27.2,30.5,81.0,40.4459780903411
2019-10-22 17:19:16,27.3,30.5,81.0,38.832588657144754
2019-10-22 17:19:18,27.4,30.5,81.0,38.582141417077196
2019-10-22 17:19:20,27.4,30.5,81.1,37.27844831945532
2019-10-22 17:19:22,27.4,30.6,81.1,37.58323805806236
2019-10-22 17:19:24,27.4,30.6,81.2,37.58323805806236
2019-10-22 17:19:26,27.4,30.6,81.2,37.58323805806236
2019-10-22 17:19:28,27.4,30.6,81.3,37.58323805806236
2019-10-22 17:19:30,27.5,30.6,81.4,37.372043489676116
2019-10-22 17:19:32,27.4,30.6,81.4,37.58323805806236
2019-10-22 17:19:34,27.5,30.6,81.5,36.05291886094403
2019-10-22 17:19:36,27.5,30.6,81.6,36.05291886094403
2019-10-22 17:19:38,27.5,30.6,81.6,36.05291886094403
2019-10-22 17:19:40,27.6,30.6,81.7,35.88147436597757
2019-10-22 17:19:42,27.5,30.6,81.8,37.372043489676116
2019-10-22 17:19:44,27.5,30.6,81.8,37.372043489676116
2019-10-22 17:19:46,27.5,30.6,81.9,37.372043489676116
2019-10-22 17:19:48,27.5,30.6,81.9,37.372043489676116
2019-10-22 17:19:50,27.5,30.6,81.9,37.372043489676116
2019-10-22 17:19:52,27.5,30.6,81.9,37.372043489676116
2019-10-22 17:19:54,27.5,30.6,81.9,37.372043489676116
2019-10-22 17:19:56,27.5,30.6,82.0,36.05291886094403
2019-10-22 17:19:58,27.5,30.6,82.0,36.05291886094403
2019-10-22 17:20:00,27.5,30.6,82.0,36.05291886094403
2019-10-22 17:20:02,27.5,30.6,82.0,36.05291886094403
2019-10-22 17:20:04,27.6,30.6,82.0,35.88147436597757
2019-10-22 17:20:06,27.6,30.6,82.0,35.88147436597757
2019-10-22 17:20:08,27.6,30.6,82.0,35.88147436597757
2019-10-22 17:20:10,27.7,30.6,82.1,34.456047802846456
2019-10-22 17:20:12,27.8,30.6,82.1,30.600000000000023
2019-10-22 17:20:14,27.8,30.6,82.2,34.325476944114484
2019-10-22 17:20:16,27.8,30.6,82.3,34.325476944114484
2019-10-22 17:20:18,27.9,30.6,82.4,34.194739530621916
2019-10-22 17:20:20,27.9,30.6,82.5,30.600000000000023
2019-10-22 17:20:22,28.0,30.6,82.6,30.600000000000023
2019-10-22 17:20:24,27.9,30.6,82.6,30.600000000000023
2019-10-22 17:20:26,28.0,30.6,82.6,30.600000000000023
2019-10-22 17:20:28,28.0,30.6,82.6,30.600000000000023
2019-10-22 17:20:30,28.0,30.6,82.5,30.600000000000023
2019-10-22 17:20:32,28.1,30.6,82.5,30.600000000000023
2019-10-22 17:20:34,28.1,30.6,82.4,30.600000000000023
2019-10-22 17:20:36,28.1,30.6,82.3,30.600000000000023
2019-10-22 17:20:38,28.2,30.6,82.2,30.600000000000023
2019-10-22 17:20:40,28.2,30.6,82.1,30.600000000000023
2019-10-22 17:20:42,28.2,30.6,82.0,30.600000000000023
2019-10-22 17:20:44,28.2,30.6,81.9,30.600000000000023
2019-10-22 17:20:46,28.1,30.6,81.8,30.600000000000023
2019-10-22 17:20:48,28.1,30.6,81.7,35.01994223538776
2019-10-22 17:20:50,28.1,30.6,81.6,36.095735455588795
2019-10-22 17:20:52,28.0,30.6,81.6,37.41431688145042
2019-10-22 17:20:54,27.8,30.6,81.5,39.09127572258399
2019-10-22 17:20:56,27.8,30.6,81.5,39.09127572258399
2019-10-22 17:20:58,27.7,30.6,81.5,39.381981540053005
2019-10-22 17:21:00,27.6,30.6,81.4,40.90525403053982
2019-10-22 17:21:02,27.5,30.6,81.4,39.96097154155382
2019-10-22 17:21:04,27.5,30.6,81.3,38.674567914515535
2019-10-22 17:21:06,27.5,30.6,81.2,38.674567914515535
2019-10-22 17:21:08,27.4,30.6,81.2,38.9247928757008
2019-10-22 17:21:10,27.4,30.6,81.1,38.9247928757008
2019-10-22 17:21:12,27.4,30.6,81.1,38.9247928757008
2019-10-22 17:21:14,27.4,30.6,81.0,38.9247928757008
2019-10-22 17:21:16,27.4,30.6,81.0,38.9247928757008
2019-10-22 17:21:18,27.4,30.6,81.0,38.9247928757008
2019-10-22 17:21:20,27.4,30.6,81.0,38.9247928757008
2019-10-22 17:21:22,27.4,30.6,81.0,41.557156875430564
2019-10-22 17:21:24,27.4,30.6,81.0,44.125075574336506
2019-10-22 17:21:26,27.3,30.6,81.0,45.81599672297432
2019-10-22 17:21:28,27.3,30.6,81.0,43.20941699349618
2019-10-22 17:21:30,27.3,30.6,81.1,44.52072718076636
2019-10-22 17:21:32,27.3,30.8,81.1,46.84219303741122
2019-10-22 17:21:34,27.3,30.8,81.1,45.48120387338406
2019-10-22 17:21:36,27.3,30.8,81.1,42.70568072484855
2019-10-22 17:21:38,27.3,30.8,81.1,41.29003080439236
2019-10-22 17:21:40,27.3,30.8,81.2,42.70568072484855
2019-10-22 17:21:42,27.3,30.7,81.2,40.91403185386997
2019-10-22 17:21:44,27.4,30.7,81.2,41.97123769677643
2019-10-22 17:21:46,27.4,30.7,81.2,44.60815556356238
2019-10-22 17:21:48,27.3,30.7,81.3,45.00200987405083
2019-10-22 17:21:50,27.2,30.7,81.3,45.394406884483374
2019-10-22 17:21:52,27.2,30.9,81.4,46.347219139139725
2019-10-22 17:21:54,27.1,30.9,81.4,46.73469252278187
2019-10-22 17:21:56,27.1,30.8,81.3,46.261041373054525
2019-10-22 17:21:58,27.1,30.8,81.3,47.688863370882814
2019-10-22 17:22:00,27.1,30.8,81.3,46.261041373054525
2019-10-22 17:22:02,27.1,30.8,81.3,44.813810612794214
2019-10-22 17:22:04,27.0,30.8,81.3,46.64882770462032
2019-10-22 17:22:06,27.1,30.8,81.3,46.261041373054525
2019-10-22 17:22:08,27.0,30.8,81.3,46.64882770462032
2019-10-22 17:22:10,27.0,31.0,81.3,46.04483926134424
2019-10-22 17:22:12,27.0,31.0,81.3,46.04483926134424
2019-10-22 17:22:14,27.0,30.9,81.3,42.513429912117886
2019-10-22 17:22:16,27.1,30.9,81.3,42.23130555568258
2019-10-22 17:22:18,27.1,30.9,81.3,43.75383334235664
2019-10-22 17:22:20,27.1,30.9,81.4,43.75383334235664
2019-10-22 17:22:22,27.1,30.9,81.4,43.75383334235664
2019-10-22 17:22:24,27.1,30.9,81.4,43.75383334235664
2019-10-22 17:22:26,27.2,30.9,81.4,41.94842203785373
2019-10-22 17:22:28,27.2,30.9,81.5,40.44037414342341
2019-10-22 17:22:30,27.3,30.9,81.6,38.70174226460034
2019-10-22 17:22:32,27.3,30.9,81.6,38.70174226460034
2019-10-22 17:22:34,27.4,30.8,81.7,41.0045946166847
2019-10-22 17:22:36,27.3,30.8,81.8,44.102547950288
2019-10-22 17:22:38,27.3,30.8,81.9,42.70568072484855
2019-10-22 17:22:40,27.3,30.8,82.0,44.102547950288
2019-10-22 17:22:42,27.3,30.8,82.0,44.102547950288
2019-10-22 17:22:44,27.3,30.8,82.0,42.70568072484855
2019-10-22 17:22:46,27.2,30.7,82.1,42.616574135857775
2019-10-22 17:22:48,27.2,30.7,82.1,44.014613850369756
2019-10-22 17:22:50,27.2,30.7,82.1,44.014613850369756
2019-10-22 17:22:52,27.2,30.7,82.1,42.616574135857775
2019-10-22 17:22:54,27.2,30.7,82.1,41.19971458729901
2019-10-22 17:22:56,27.2,30.7,82.1,39.763433241650375
2019-10-22 17:22:58,27.2,30.7,82.1,39.763433241650375
2019-10-22 17:23:00,27.2,30.7,82.1,41.19971458729901
2019-10-22 17:23:02,27.3,30.7,82.1,40.91403185386997
2019-10-22 17:23:04,27.3,30.7,82.1,40.91403185386997
2019-10-22 17:23:06,27.3,30.7,82.1,43.65688312329985
2019-10-22 17:23:08,27.3,30.7,82.2,45.00200987405083
2019-10-22 17:23:10,27.2,30.7,82.2,45.394406884483374
2019-10-22 17:23:12,27.2,30.7,82.3,46.75649943051678
2019-10-22 17:23:14,27.2,30.7,82.3,48.10141241988043
2019-10-22 17:23:16,27.2,30.7,82.3,46.75649943051678
2019-10-22 17:23:18,27.2,30.7,82.3,45.394406884483374
2019-10-22 17:23:20,27.2,30.7,82.3,44.014613850369756
2019-10-22 17:23:22,27.2,30.7,82.3,45.394406884483374
2019-10-22 17:23:24,27.2,30.7,82.3,46.75649943051678
2019-10-22 17:23:26,27.2,30.7,82.3,45.394406884483374
2019-10-22 17:23:28,27.2,30.7,82.2,44.014613850369756
2019-10-22 17:23:30,27.2,30.6,82.2,43.56866437321764
2019-10-22 17:23:32,27.2,30.6,82.2,42.20503354263394
2019-10-22 17:23:34,27.2,30.6,82.2,43.56866437321764
2019-10-22 17:23:36,27.2,30.6,82.2,43.56866437321764
2019-10-22 17:23:38,27.2,30.6,82.3,43.56866437321764
2019-10-22 17:23:40,27.2,30.6,82.3,42.20503354263394
2019-10-22 17:23:42,27.2,30.6,82.3,42.20503354263394
2019-10-22 17:23:44,27.2,30.6,82.3,43.56866437321764
2019-10-22 17:23:46,27.2,30.6,82.3,42.20503354263394
2019-10-22 17:23:48,27.2,30.6,82.3,42.20503354263394
2019-10-22 17:23:50,27.2,30.6,82.2,39.42344478272719
2019-10-22 17:23:52,27.2,30.6,82.2,38.00433998314452
2019-10-22 17:23:54,27.2,30.6,82.2,38.00433998314452
2019-10-22 17:23:56,27.3,30.6,82.2,37.794002877578805
2019-10-22 17:23:58,27.3,30.6,82.2,39.17441738131811
2019-10-22 17:24:00,27.3,30.6,82.2,39.17441738131811
2019-10-22 17:24:02,27.3,30.6,82.2,39.17441738131811
2019-10-22 17:24:04,27.3,30.6,82.1,37.794002877578805
2019-10-22 17:24:06,27.3,30.6,82.1,37.794002877578805
2019-10-22 17:24:08,27.3,30.6,82.1,36.39495482077541
2019-10-22 17:24:10,27.3,30.6,82.0,36.39495482077541
2019-10-22 17:24:12,27.4,30.6,82.0,36.22407864561774
2019-10-22 17:24:14,27.4,30.5,82.0,35.95811994653991
2019-10-22 17:24:16,27.4,30.5,82.0,35.95811994653991
2019-10-22 17:24:18,27.3,30.4,82.0,35.86332747397353
2019-10-22 17:24:20,27.3,30.4,82.0,35.86332747397353
2019-10-22 17:24:22,27.3,30.4,81.9,30.399999999999977
2019-10-22 17:24:24,27.4,30.4,81.9,30.399999999999977
2019-10-22 17:24:26,27.4,30.4,81.9,30.399999999999977
2019-10-22 17:24:28,27.5,30.4,81.9,30.399999999999977
2019-10-22 17:24:30,27.5,30.4,81.9,30.399999999999977
2019-10-22 17:24:32,27.5,30.4,81.9,30.399999999999977
2019-10-22 17:24:34,27.4,30.4,81.9,36.972850906787244
2019-10-22 17:24:36,27.4,30.4,81.9,38.23844791902735
2019-10-22 17:24:38,27.4,30.4,81.9,40.72432551280724
2019-10-22 17:24:40,27.4,30.4,81.9,40.72432551280724
2019-10-22 17:24:42,27.4,30.4,81.9,38.23844791902735
2019-10-22 17:24:44,27.5,30.4,81.9,36.760405143924004
2019-10-22 17:24:46,27.5,30.4,82.0,36.760405143924004
2019-10-22 17:24:48,27.5,30.4,82.0,36.760405143924004
2019-10-22 17:24:50,27.6,30.4,82.0,36.54752158117765
2019-10-22 17:24:52,27.6,30.4,82.1,37.73406289402118
2019-10-22 17:24:54,27.5,30.4,82.1,39.198391466204896
2019-10-22 17:24:56,27.5,30.4,82.1,40.39627810401146
2019-10-22 17:24:58,27.4,30.4,82.2,40.72432551280724
2019-10-22 17:25:00,27.3,30.4,82.2,42.30900966923565
2019-10-22 17:25:02,27.3,30.4,82.1,42.30900966923565
2019-10-22 17:25:04,27.4,30.4,82.1,40.72432551280724
2019-10-22 17:25:06,27.3,30.4,82.1,41.05134755330448